| time (UTC) | temp F | wind direction | speed knots | gust knots | rain 1hr in | rain 24hr in | rain mn in | humidity % | barometer mb |
| 20260507151104 | 57 | 12 | 1.7 | 4.3 | 0.00 | 0.01 | 0.01 | 61 | 1017.3 |
| 20260507150058 | 57 | 13 | 2.6 | 7.0 | 0.00 | 0.01 | 0.01 | 60 | 1017.3 |
| 20260507145101 | 58 | 13 | 2.6 | 7.0 | 0.00 | 0.01 | 0.01 | 62 | 1017.4 |
| 20260507144100 | 58 | 23 | 3.5 | 7.0 | 0.00 | 0.01 | 0.01 | 63 | 1017.4 |
| 20260507143102 | 58 | 330 | 3.5 | 7.8 | 0.00 | 0.01 | 0.01 | 62 | 1017.3 |
| 20260507142059 | 58 | 15 | 4.3 | 7.8 | 0.00 | 0.01 | 0.01 | 66 | 1017.4 |
| 20260507141059 | 57 | 333 | 3.5 | 9.6 | 0.00 | 0.01 | 0.01 | 67 | 1017.5 |
| 20260507140107 | 57 | 333 | 3.5 | 9.6 | 0.00 | 0.01 | 0.01 | 67 | 1017.5 |
| 20260507135101 | 58 | 29 | 4.3 | 7.8 | 0.00 | 0.01 | 0.01 | 66 | 1017.5 |
| 20260507134058 | 58 | 11 | 2.6 | 5.2 | 0.00 | 0.01 | 0.01 | 70 | 1017.5 |
| 20260507133101 | 57 | 11 | 2.6 | 5.2 | 0.00 | 0.01 | 0.01 | 66 | 1017.5 |
| 20260507132100 | 57 | 52 | 2.6 | 5.2 | 0.00 | 0.01 | 0.01 | 64 | 1017.5 |
| 20260507131056 | 58 | 59 | 0.9 | 3.5 | 0.00 | 0.01 | 0.01 | 66 | 1017.5 |
| 20260507130101 | 57 | 59 | 0.9 | 3.5 | 0.00 | 0.01 | 0.01 | 65 | 1017.5 |
| 20260507124101 | 56 | 10 | 1.7 | 4.3 | 0.00 | 0.01 | 0.01 | 65 | 1017.6 |
| 20260507123102 | 56 | 20 | 1.7 | 4.3 | 0.00 | 0.01 | 0.01 | 64 | 1017.5 |
| 20260507121058 | 56 | 45 | 1.7 | 5.2 | 0.00 | 0.01 | 0.01 | 71 | 1017.5 |
| 20260507115102 | 56 | 4 | 2.6 | 5.2 | 0.00 | 0.01 | 0.01 | 67 | 1017.5 |
| 20260507114101 | 56 | 272 | 2.6 | 5.2 | 0.00 | 0.01 | 0.01 | 69 | 1017.4 |
| 20260507113100 | 56 | 1 | 2.6 | 5.2 | 0.00 | 0.01 | 0.01 | 70 | 1017.5 |
| 20260507112103 | 56 | 30 | 1.7 | 5.2 | 0.00 | 0.01 | 0.01 | 71 | 1017.5 |
| 20260507111101 | 56 | 20 | 2.6 | 4.3 | 0.00 | 0.01 | 0.01 | 72 | 1017.6 |
| 20260507110100 | 56 | 353 | 1.7 | 4.3 | 0.00 | 0.01 | 0.01 | 75 | 1017.7 |
| 20260507105100 | 55 | 351 | 1.7 | 5.2 | 0.00 | 0.01 | 0.01 | 74 | 1017.7 |
| 20260507104058 | 55 | 354 | 2.6 | 7.0 | 0.00 | 0.01 | 0.01 | 74 | 1017.7 |
| 20260507103101 | 55 | 354 | 2.6 | 7.0 | 0.00 | 0.01 | 0.01 | 72 | 1017.7 |
| 20260507102059 | 56 | 10 | 2.6 | 4.3 | 0.00 | 0.01 | 0.01 | 72 | 1017.7 |
| 20260507101101 | 55 | 346 | 2.6 | 6.1 | 0.00 | 0.01 | 0.01 | 76 | 1017.7 |
| 20260507100058 | 55 | 346 | 2.6 | 6.1 | 0.00 | 0.01 | 0.01 | 74 | 1017.6 |
| 20260507095058 | 55 | 341 | 2.6 | 4.3 | 0.00 | 0.01 | 0.01 | 76 | 1017.5 |
| 20260507094059 | 54 | 1 | 2.6 | 7.0 | 0.00 | 0.01 | 0.01 | 76 | 1017.6 |
| 20260507093059 | 53 | 1 | 2.6 | 7.0 | 0.00 | 0.01 | 0.01 | 78 | 1017.5 |
| 20260507092059 | 53 | 336 | 2.6 | 5.2 | 0.00 | 0.01 | 0.01 | 77 | 1017.5 |
| 20260507091059 | 53 | 327 | 2.6 | 6.1 | 0.00 | 0.01 | 0.01 | 78 | 1017.5 |
| 20260507085057 | 53 | 297 | 2.6 | 5.2 | 0.00 | 0.02 | 0.01 | 77 | 1017.4 |
| 20260507084059 | 52 | 297 | 2.6 | 5.2 | 0.00 | 0.02 | 0.01 | 79 | 1017.4 |
| 20260507083102 | 51 | 290 | 2.6 | 5.2 | 0.00 | 0.02 | 0.01 | 79 | 1017.4 |
| 20260507082057 | 51 | 284 | 1.7 | 4.3 | 0.00 | 0.02 | 0.01 | 80 | 1017.3 |
| 20260507081102 | 51 | 284 | 1.7 | 4.3 | 0.00 | 0.02 | 0.01 | 79 | 1017.3 |
| 20260507080057 | 51 | 296 | 1.7 | 3.5 | 0.00 | 0.02 | 0.01 | 81 | 1017.2 |
| 20260507074100 | 50 | 130 | 1.7 | 3.5 | 0.00 | 0.03 | 0.01 | 82 | 1017.1 |
| 20260507073059 | 50 | 257 | 0.9 | 2.6 | 0.00 | 0.04 | 0.01 | 84 | 1017.1 |
| 20260507072058 | 50 | 261 | 0.9 | 2.6 | 0.00 | 0.05 | 0.01 | 84 | 1017.0 |
| 20260507071057 | 50 | 253 | 0.9 | 2.6 | 0.00 | 0.05 | 0.01 | 87 | 1017.0 |
| 20260507070056 | 49 | 261 | 1.7 | 3.5 | 0.00 | 0.06 | 0.01 | 87 | 1016.9 |
| 20260507065055 | 49 | 255 | 1.7 | 3.5 | 0.00 | 0.06 | 0.01 | 90 | 1016.9 |
| 20260507064054 | 48 | 260 | 1.7 | 3.5 | 0.00 | 0.06 | 0.01 | 91 | 1016.8 |
| 20260507063054 | 48 | 265 | 1.7 | 4.3 | 0.00 | 0.08 | 0.01 | 92 | 1016.8 |
| 20260507061058 | 48 | 265 | 1.7 | 4.3 | 0.00 | 0.09 | 0.01 | 95 | 1016.7 |
| 20260507060055 | 47 | 274 | 2.6 | 4.3 | 0.00 | 0.09 | 0.01 | 97 | 1016.5 |
| 20260507055052 | 47 | 288 | 1.7 | 4.3 | 0.00 | 0.12 | 0.01 | 98 | 1016.4 |
| 20260507054056 | 46 | 284 | 1.7 | 4.3 | 0.00 | 0.13 | 0.01 | 98 | 1016.4 |
| 20260507053052 | 46 | 287 | 1.7 | 3.5 | 0.00 | 0.14 | 0.01 | 98 | 1016.4 |
| 20260507052055 | 46 | 294 | 0.9 | 2.6 | 0.00 | 0.15 | 0.01 | 99 | 1016.3 |
| 20260507051057 | 46 | 289 | 0.9 | 2.6 | 0.00 | 0.16 | 0.01 | 10 | 1016.2 |
| 20260507045057 | 45 | 260 | 0.9 | 2.6 | 0.00 | 0.19 | 0.01 | 10 | 1016.0 |
| 20260507044059 | 45 | 235 | 0.0 | 1.7 | 0.00 | 0.20 | 0.01 | 10 | 1015.9 |
| 20260507043056 | 45 | 285 | 0.9 | 1.7 | 0.00 | 0.20 | 0.01 | 10 | 1015.9 |
| 20260507042056 | 45 | 282 | 0.9 | 1.7 | 0.00 | 0.21 | 0.01 | 10 | 1015.8 |
| 20260507040056 | 45 | 303 | 0.0 | 0.9 | 0.00 | 0.24 | 0.01 | 10 | 1015.7 |
| 20260507035057 | 45 | 311 | 0.0 | 0.9 | 0.00 | 0.24 | 0.01 | 10 | 1015.7 |
| 20260507034056 | 45 | 298 | 0.0 | 0.9 | 0.00 | 0.25 | 0.01 | 10 | 1015.6 |
| 20260507033053 | 45 | 296 | 0.0 | 0.0 | 0.00 | 0.26 | 0.01 | 10 | 1015.5 |
| 20260507032056 | 45 | 296 | 0.0 | 0.0 | 0.01 | 0.27 | 0.01 | 10 | 1015.5 |
| 20260507031054 | 45 | 296 | 0.0 | 1.7 | 0.01 | 0.28 | 0.01 | 10 | 1015.5 |
| 20260507030056 | 45 | 303 | 0.9 | 1.7 | 0.01 | 0.28 | 0.01 | 99 | 1015.5 |
| 20260507025054 | 45 | 323 | 0.0 | 1.7 | 0.01 | 0.28 | 0.01 | 99 | 1015.4 |
| 20260507023051 | 45 | 22 | 0.9 | 2.6 | 0.01 | 0.30 | 0.01 | 99 | 1015.3 |
| 20260507022057 | 45 | 22 | 0.9 | 2.6 | 0.01 | 0.31 | 0.01 | 98 | 1015.3 |
| 20260507021056 | 45 | 34 | 1.7 | 4.3 | 0.00 | 0.30 | 0.00 | 97 | 1015.3 |
| 20260507020055 | 46 | 20 | 2.6 | 4.3 | 0.00 | 0.31 | 0.00 | 97 | 1015.2 |
| 20260507015055 | 45 | 9 | 0.9 | 2.6 | 0.00 | 0.31 | 0.00 | 98 | 1015.1 |
| 20260507014057 | 45 | 13 | 0.9 | 1.7 | 0.00 | 0.32 | 0.00 | 99 | 1015.1 |
| 20260507012053 | 45 | 357 | 0.9 | 2.6 | 0.00 | 0.34 | 0.00 | 99 | 1015.1 |
| 20260507011058 | 45 | 357 | 0.9 | 2.6 | 0.00 | 0.35 | 0.00 | 99 | 1015.0 |
| 20260507010058 | 45 | 6 | 0.9 | 2.6 | 0.00 | 0.36 | 0.00 | 99 | 1015.0 |
| 20260507005055 | 45 | 14 | 1.7 | 3.5 | 0.00 | 0.37 | 0.00 | 99 | 1014.9 |
| 20260507004056 | 45 | 14 | 1.7 | 3.5 | 0.00 | 0.39 | 0.00 | 98 | 1014.9 |
| 20260507003057 | 46 | 14 | 1.7 | 3.5 | 0.00 | 0.39 | 0.00 | 98 | 1014.9 |
| 20260507002057 | 45 | 19 | 1.7 | 2.6 | 0.00 | 0.39 | 0.00 | 99 | 1014.8 |
| 20260507001056 | 45 | 23 | 1.7 | 3.5 | 0.00 | 0.40 | 0.00 | 99 | 1014.8 |
| 20260507000101 | 45 | 23 | 1.7 | 3.5 | 0.00 | 0.41 | 0.00 | 99 | 1014.7 |
| 20260506235106 | 45 | 22 | 1.7 | 3.5 | 0.00 | 0.42 | 0.00 | 99 | 1014.7 |
| 20260506234105 | 45 | 22 | 1.7 | 4.3 | 0.00 | 0.43 | 0.00 | 99 | 1014.7 |
| 20260506233106 | 45 | 19 | 1.7 | 4.3 | 0.00 | 0.43 | 0.00 | 99 | 1014.6 |
| 20260506232104 | 45 | 21 | 1.7 | 3.5 | 0.00 | 0.43 | 0.00 | 99 | 1014.5 |
| 20260506231104 | 45 | 19 | 2.6 | 4.3 | 0.00 | 0.44 | 0.00 | 99 | 1014.5 |
| 20260506230106 | 45 | 10 | 2.6 | 5.2 | 0.00 | 0.45 | 0.00 | 98 | 1014.4 |
| 20260506225103 | 44 | 10 | 2.6 | 4.3 | 0.00 | 0.45 | 0.00 | 99 | 1014.3 |
| 20260506224105 | 44 | 1 | 2.6 | 4.3 | 0.00 | 0.46 | 0.00 | 98 | 1014.2 |
| 20260506223106 | 44 | 358 | 2.6 | 5.2 | 0.00 | 0.46 | 0.00 | 98 | 1014.2 |
| 20260506220116 | 44 | 349 | 2.6 | 5.2 | 0.00 | 0.50 | 0.00 | 97 | 1014.1 |
| 20260506215114 | 44 | 349 | 2.6 | 5.2 | 0.00 | 0.51 | 0.50 | 96 | 1014.1 |
| 20260506213110 | 44 | 341 | 3.5 | 5.2 | 0.00 | 0.53 | 0.50 | 94 | 1014.0 |
| 20260506211112 | 45 | 339 | 3.5 | 7.0 | 0.00 | 0.54 | 0.50 | 92 | 1013.7 |
| 20260506210111 | 46 | 346 | 2.6 | 6.1 | 0.00 | 0.56 | 0.50 | 91 | 1013.6 |
| 20260506205109 | 46 | 350 | 3.5 | 6.1 | 0.00 | 0.58 | 0.50 | 91 | 1013.5 |
| 20260506204109 | 46 | 349 | 3.5 | 7.8 | 0.00 | 0.58 | 0.50 | 90 | 1013.4 |
| 20260506202112 | 47 | 355 | 3.5 | 7.8 | 0.00 | 0.59 | 0.50 | 89 | 1013.3 |
| 20260506201114 | 48 | 350 | 2.6 | 5.2 | 0.00 | 0.61 | 0.50 | 88 | 1013.2 |
| 20260506200112 | 48 | 350 | 2.6 | 5.2 | 0.00 | 0.61 | 0.50 | 88 | 1013.1 |
| 20260506195109 | 48 | 358 | 2.6 | 7.0 | 0.00 | 0.61 | 0.50 | 89 | 1013.0 |
| 20260506194111 | 48 | 8 | 3.5 | 6.1 | 0.00 | 0.61 | 0.50 | 90 | 1012.9 |
| 20260506193110 | 49 | 9 | 3.5 | 5.2 | 0.00 | 0.61 | 0.50 | 91 | 1012.8 |
| 20260506192111 | 49 | 11 | 3.5 | 6.1 | 0.00 | 0.62 | 0.50 | 91 | 1012.7 |
| 20260506190111 | 50 | 348 | 1.7 | 4.3 | 0.00 | 0.64 | 0.50 | 94 | 1012.3 |
| 20260506185109 | 50 | 351 | 1.7 | 4.3 | 0.00 | 0.65 | 0.50 | 93 | 1012.2 |
| 20260506184102 | 51 | 342 | 2.6 | 5.2 | 0.00 | 0.65 | 0.50 | 91 | 1012.0 |
| 20260506183107 | 51 | 320 | 1.7 | 5.2 | 0.00 | 0.65 | 0.50 | 90 | 1011.9 |
| 20260506180109 | 51 | 314 | 1.7 | 6.1 | 0.00 | 0.66 | 0.50 | 88 | 1011.5 |
| 20260506175106 | 51 | 311 | 1.7 | 5.2 | 0.00 | 0.66 | 0.50 | 88 | 1011.4 |
| 20260506174106 | 51 | 46 | 1.7 | 5.2 | 0.00 | 0.66 | 0.50 | 87 | 1011.3 |
| 20260506173103 | 51 | 316 | 2.6 | 6.1 | 0.00 | 0.66 | 0.50 | 87 | 1011.1 |
| 20260506172106 | 51 | 316 | 2.6 | 7.8 | 0.00 | 0.66 | 0.50 | 85 | 1011.0 |
| 20260506171105 | 52 | 302 | 3.5 | 7.8 | 0.00 | 0.66 | 0.50 | 83 | 1011.0 |
| 20260506170100 | 52 | 355 | 2.6 | 7.8 | 0.00 | 0.66 | 0.50 | 82 | 1010.9 |
| 20260506165100 | 53 | 321 | 4.3 | 9.6 | 0.00 | 0.66 | 0.50 | 83 | 1010.8 |
| 20260506164103 | 53 | 355 | 2.6 | 7.8 | 0.00 | 0.66 | 0.50 | 81 | 1010.8 |
| 20260506163101 | 53 | 296 | 2.6 | 7.0 | 0.00 | 0.66 | 0.50 | 85 | 1010.8 |
| 20260506162106 | 52 | 290 | 1.7 | 4.3 | 0.00 | 0.66 | 0.50 | 85 | 1010.8 |
| 20260506161104 | 51 | 293 | 0.9 | 4.3 | 0.00 | 0.66 | 0.50 | 92 | 1010.8 |
| 20260506155103 | 51 | 253 | 0.9 | 2.6 | 0.00 | 0.66 | 0.50 | 95 | 1010.9 |
| 20260506154107 | 51 | 299 | 0.9 | 2.6 | 0.00 | 0.66 | 0.50 | 93 | 1010.9 |
| 20260506153101 | 51 | 331 | 0.9 | 3.5 | 0.00 | 0.66 | 0.50 | 93 | 1010.9 |